Time,TemperatureF,DewpointF,PressureIn,WindDirection,WindDirectionDegrees,WindSpeedMPH,WindSpeedGustMPH,Humidity,HourlyPrecipIn,Conditions,Clouds,dailyrainin,SolarRadiationWatts/m^2,SoftwareType,DateUTC
2013-07-13 00:04:00,62.0,49.3,29.69,NE,45,8.0,25.0,63,0.00,,,0.00,93,Wunderground v.1.15,2013-07-13 06:04:00,
2013-07-13 00:10:00,62.2,48.1,29.69,NE,44,7.0,7.0,60,0.00,,,0.00,93,Wunderground v.1.15,2013-07-13 06:10:00,
2013-07-13 00:16:00,62.4,48.8,29.69,NE,44,6.0,25.0,61,0.00,,,0.00,95,Wunderground v.1.15,2013-07-13 06:16:00,
2013-07-13 00:22:00,62.6,48.5,29.69,NE,44,7.0,25.0,60,0.00,,,0.00,95,Wunderground v.1.15,2013-07-13 06:22:00,
2013-07-13 00:28:00,62.0,50.5,29.69,ESE,114,6.0,25.0,66,0.00,,,0.00,95,Wunderground v.1.15,2013-07-13 06:28:00,
2013-07-13 00:34:00,60.9,49.1,29.69,East,96,6.0,25.0,65,0.00,,,0.00,91,Wunderground v.1.15,2013-07-13 06:34:00,
2013-07-13 00:40:00,60.8,48.5,29.69,East,91,6.0,25.0,64,0.00,,,0.00,90,Wunderground v.1.15,2013-07-13 06:40:00,
2013-07-13 00:46:00,60.8,48.1,29.69,East,93,6.0,25.0,63,0.00,,,0.00,90,Wunderground v.1.15,2013-07-13 06:46:00,
2013-07-13 00:52:00,60.7,48.0,29.70,East,91,5.0,25.0,63,0.00,,,0.00,88,Wunderground v.1.15,2013-07-13 06:52:00,
2013-07-13 00:58:00,60.0,48.2,29.70,ESE,104,5.0,25.0,65,0.00,,,0.00,86,Wunderground v.1.15,2013-07-13 06:58:00,
2013-07-13 01:04:00,58.7,48.6,29.70,ESE,106,6.0,25.0,69,0.00,,,0.00,83,Wunderground v.1.15,2013-07-13 07:04:00,
2013-07-13 01:10:00,57.6,47.9,29.70,East,95,6.0,25.0,70,0.00,,,0.00,79,Wunderground v.1.15,2013-07-13 07:10:00,
2013-07-13 01:16:00,57.3,48.7,29.70,ESE,115,7.0,25.0,73,0.00,,,0.00,76,Wunderground v.1.15,2013-07-13 07:16:00,
2013-07-13 01:22:00,57.4,49.2,29.70,ESE,110,6.0,25.0,74,0.00,,,0.00,76,Wunderground v.1.15,2013-07-13 07:22:00,
2013-07-13 01:28:00,57.4,48.4,29.70,East,86,6.0,25.0,72,0.00,,,0.00,76,Wunderground v.1.15,2013-07-13 07:28:00,
2013-07-13 01:34:00,57.7,48.4,29.71,East,85,5.0,25.0,71,0.00,,,0.00,76,Wunderground v.1.15,2013-07-13 07:34:00,
2013-07-13 01:40:00,58.1,48.0,29.70,East,85,5.0,5.0,69,0.00,,,0.00,77,Wunderground v.1.15,2013-07-13 07:40:00,
2013-07-13 01:46:00,58.2,47.7,29.70,East,85,4.0,25.0,68,0.00,,,0.00,77,Wunderground v.1.15,2013-07-13 07:46:00,
2013-07-13 01:52:00,58.4,47.9,29.71,East,84,3.0,25.0,68,0.00,,,0.00,77,Wunderground v.1.15,2013-07-13 07:52:00,
2013-07-13 01:58:00,58.6,48.1,29.70,East,79,4.0,25.0,68,0.00,,,0.00,77,Wunderground v.1.15,2013-07-13 07:58:00,
2013-07-13 02:04:00,58.7,47.8,29.70,ENE,75,4.0,7.0,67,0.00,,,0.00,79,Wunderground v.1.15,2013-07-13 08:04:00,
2013-07-13 02:10:00,58.7,47.8,29.71,ENE,62,5.0,5.0,67,0.00,,,0.00,79,Wunderground v.1.15,2013-07-13 08:10:00,
2013-07-13 02:16:00,58.7,47.4,29.72,ENE,74,6.0,7.0,66,0.00,,,0.00,79,Wunderground v.1.15,2013-07-13 08:16:00,
2013-07-13 02:22:00,58.6,48.1,29.72,ESE,107,6.0,7.0,68,0.00,,,0.00,79,Wunderground v.1.15,2013-07-13 08:22:00,
2013-07-13 02:28:00,58.7,48.2,29.72,ESE,107,4.0,7.0,68,0.00,,,0.00,79,Wunderground v.1.15,2013-07-13 08:28:00,
2013-07-13 02:34:00,58.8,47.1,29.72,ESE,107,2.0,7.0,65,0.00,,,0.00,79,Wunderground v.1.15,2013-07-13 08:34:00,
2013-07-13 02:40:00,58.6,46.9,29.72,ESE,107,1.0,1.0,65,0.00,,,0.00,77,Wunderground v.1.15,2013-07-13 08:40:00,
2013-07-13 02:46:00,58.0,48.6,29.72,SW,235,2.0,7.0,71,0.00,,,0.00,76,Wunderground v.1.15,2013-07-13 08:46:00,
2013-07-13 02:52:00,56.8,47.5,29.72,SW,235,3.0,7.0,71,0.00,,,0.00,72,Wunderground v.1.15,2013-07-13 08:52:00,
2013-07-13 02:58:00,56.3,47.8,29.72,SW,235,2.0,7.0,73,0.00,,,0.00,70,Wunderground v.1.15,2013-07-13 08:58:00,
2013-07-13 03:04:00,56.2,48.4,29.72,SW,235,2.0,7.0,75,0.00,,,0.00,69,Wunderground v.1.15,2013-07-13 09:04:00,
2013-07-13 03:10:00,56.2,48.7,29.72,SW,235,2.0,7.0,76,0.00,,,0.00,69,Wunderground v.1.15,2013-07-13 09:10:00,
2013-07-13 03:16:00,55.9,48.8,29.72,South,177,3.0,7.0,77,0.00,,,0.00,69,Wunderground v.1.15,2013-07-13 09:16:00,
2013-07-13 03:22:00,54.9,47.5,29.72,SSE,153,5.0,7.0,76,0.00,,,0.00,67,Wunderground v.1.15,2013-07-13 09:22:00,
2013-07-13 03:28:00,54.3,47.6,29.73,SSE,153,5.0,7.0,78,0.00,,,0.00,65,Wunderground v.1.15,2013-07-13 09:28:00,
2013-07-13 03:34:00,53.8,47.4,29.73,SSE,153,4.0,7.0,79,0.00,,,0.00,63,Wunderground v.1.15,2013-07-13 09:34:00,
2013-07-13 03:40:00,53.4,47.0,29.73,SSE,153,3.0,3.0,79,0.00,,,0.00,62,Wunderground v.1.15,2013-07-13 09:40:00,
2013-07-13 03:46:00,53.3,47.3,29.73,SSE,153,1.0,7.0,80,0.00,,,0.00,60,Wunderground v.1.15,2013-07-13 09:46:00,
2013-07-13 03:52:00,53.3,47.6,29.73,East,91,2.0,7.0,81,0.00,,,0.00,58,Wunderground v.1.15,2013-07-13 09:52:00,
2013-07-13 03:58:00,53.3,47.6,29.73,East,91,3.0,7.0,81,0.00,,,0.00,58,Wunderground v.1.15,2013-07-13 09:58:00,
2013-07-13 04:04:00,53.3,47.3,29.73,East,91,2.0,7.0,80,0.00,,,0.00,58,Wunderground v.1.15,2013-07-13 10:04:00,
2013-07-13 04:10:00,53.4,47.4,29.74,East,91,2.0,2.0,80,0.00,,,0.00,60,Wunderground v.1.15,2013-07-13 10:10:00,
2013-07-13 04:16:00,53.5,47.5,29.74,East,91,1.0,7.0,80,0.00,,,0.00,60,Wunderground v.1.15,2013-07-13 10:16:00,
2013-07-13 04:22:00,53.5,47.5,29.74,East,91,1.0,7.0,80,0.00,,,0.00,60,Wunderground v.1.15,2013-07-13 10:22:00,
2013-07-13 04:28:00,53.3,46.6,29.74,East,91,1.0,7.0,78,0.00,,,0.00,58,Wunderground v.1.15,2013-07-13 10:28:00,
2013-07-13 04:34:00,53.1,46.8,29.75,East,91,1.0,7.0,79,0.00,,,0.00,58,Wunderground v.1.15,2013-07-13 10:34:00,
2013-07-13 04:40:00,52.9,45.9,29.75,East,91,0.0,7.0,77,0.00,,,0.00,56,Wunderground v.1.15,2013-07-13 10:40:00,
2013-07-13 04:46:00,52.8,46.5,29.75,East,91,0.0,7.0,79,0.00,,,0.00,56,Wunderground v.1.15,2013-07-13 10:46:00,
2013-07-13 04:52:00,52.8,46.8,29.75,East,91,0.0,7.0,80,0.00,,,0.00,114,Wunderground v.1.15,2013-07-13 10:52:00,
2013-07-13 04:58:00,53.1,47.1,29.76,East,91,0.0,7.0,80,0.00,,,0.00,114,Wunderground v.1.15,2013-07-13 10:58:00,
2013-07-13 05:04:00,53.4,48.0,29.76,East,91,2.0,7.0,82,0.00,,,0.00,56,Wunderground v.1.15,2013-07-13 11:04:00,
2013-07-13 05:10:00,53.4,48.4,29.76,East,91,3.0,3.0,83,0.00,,,0.00,56,Wunderground v.1.15,2013-07-13 11:10:00,
2013-07-13 05:16:00,53.2,47.8,29.77,East,91,3.0,7.0,82,0.00,,,0.00,58,Wunderground v.1.15,2013-07-13 11:16:00,
2013-07-13 05:22:00,53.1,47.4,29.77,East,91,4.0,7.0,81,0.00,,,0.00,58,Wunderground v.1.15,2013-07-13 11:22:00,
2013-07-13 05:28:00,52.7,47.0,29.77,ESE,108,4.0,7.0,81,0.00,,,0.00,58,Wunderground v.1.15,2013-07-13 11:28:00,
2013-07-13 05:34:00,52.4,47.1,29.77,ESE,108,5.0,7.0,82,0.00,,,0.00,56,Wunderground v.1.15,2013-07-13 11:34:00,
2013-07-13 05:40:00,51.9,46.9,29.78,ESE,108,5.0,7.0,83,0.00,,,0.00,111,Wunderground v.1.15,2013-07-13 11:40:00,
2013-07-13 05:46:00,51.4,46.7,29.78,ESE,108,5.0,7.0,84,0.00,,,0.00,49,Wunderground v.1.15,2013-07-13 11:46:00,
2013-07-13 05:52:00,51.3,46.9,29.78,ESE,105,5.0,7.0,85,0.00,,,0.00,83,Wunderground v.1.15,2013-07-13 11:52:00,
2013-07-13 05:58:00,51.2,46.5,29.78,ESE,104,5.0,7.0,84,0.00,,,0.00,30,Wunderground v.1.15,2013-07-13 11:58:00,
2013-07-13 06:04:00,51.4,46.1,29.78,ESE,104,5.0,7.0,82,0.00,,,0.00,47,Wunderground v.1.15,2013-07-13 12:04:00,
2013-07-13 06:10:00,51.2,46.5,29.78,ESE,106,6.0,6.0,84,0.00,,,0.00,21,Wunderground v.1.15,2013-07-13 12:10:00,
2013-07-13 06:16:00,51.1,47.1,29.78,ESE,106,6.0,7.0,86,0.00,,,0.00,0,Wunderground v.1.15,2013-07-13 12:16:00,
2013-07-13 06:22:00,51.1,46.7,29.79,ESE,106,6.0,7.0,85,0.00,,,0.00,0,Wunderground v.1.15,2013-07-13 12:22:00,
2013-07-13 06:28:00,51.1,46.7,29.79,ESE,106,5.0,7.0,85,0.00,,,0.00,0,Wunderground v.1.15,2013-07-13 12:28:00,
2013-07-13 06:34:00,51.0,46.6,29.80,ESE,106,5.0,7.0,85,0.00,,,0.00,0,Wunderground v.1.15,2013-07-13 12:34:00,
2013-07-13 06:40:00,51.2,46.5,29.80,ESE,106,3.0,7.0,84,0.00,,,0.00,0,Wunderground v.1.15,2013-07-13 12:40:00,
2013-07-13 06:46:00,51.6,46.3,29.80,ESE,106,3.0,7.0,82,0.00,,,0.00,0,Wunderground v.1.15,2013-07-13 12:46:00,
2013-07-13 06:52:00,51.8,45.8,29.80,ESE,106,2.0,7.0,80,0.00,,,0.00,0,Wunderground v.1.15,2013-07-13 12:52:00,
2013-07-13 06:58:00,51.7,45.4,29.80,ESE,106,2.0,7.0,79,0.00,,,0.00,0,Wunderground v.1.15,2013-07-13 12:58:00,
2013-07-13 07:06:00,52.1,45.8,29.81,ESE,106,2.0,7.0,79,0.00,,,0.00,0,Wunderground v.1.15,2013-07-13 13:06:00,
2013-07-13 07:12:00,52.6,46.6,29.81,ESE,106,1.0,7.0,80,0.00,,,0.00,0,Wunderground v.1.15,2013-07-13 13:12:00,
2013-07-13 07:18:00,53.2,46.5,29.81,ESE,106,1.0,7.0,78,0.00,,,0.00,0,Wunderground v.1.15,2013-07-13 13:18:00,
2013-07-13 07:24:00,53.8,46.4,29.81,ESE,106,2.0,7.0,76,0.00,,,0.00,0,Wunderground v.1.15,2013-07-13 13:24:00,
2013-07-13 07:32:00,54.4,46.6,29.82,ESE,106,2.0,7.0,75,0.00,,,0.00,0,Wunderground v.1.15,2013-07-13 13:32:00,
2013-07-13 07:38:00,54.7,46.9,29.82,ESE,106,1.0,7.0,75,0.00,,,0.00,0,Wunderground v.1.15,2013-07-13 13:38:00,
2013-07-13 07:46:00,55.3,47.2,29.83,ESE,106,1.0,7.0,74,0.00,,,0.00,0,Wunderground v.1.15,2013-07-13 13:46:00,
2013-07-13 07:52:00,55.7,47.5,29.83,ESE,106,1.0,3.0,74,0.00,,,0.00,0,Wunderground v.1.15,2013-07-13 13:52:00,
2013-07-13 08:00:00,56.3,48.5,29.83,ESE,106,1.0,7.0,75,0.00,,,0.00,0,Wunderground v.1.15,2013-07-13 14:00:00,
2013-07-13 08:10:00,56.4,47.9,29.83,SW,214,2.0,7.0,73,0.00,,,0.00,0,Wunderground v.1.15,2013-07-13 14:10:00,
2013-07-13 08:18:00,56.4,47.5,29.83,SW,216,3.0,7.0,72,0.00,,,0.00,0,Wunderground v.1.15,2013-07-13 14:18:00,
2013-07-13 08:24:00,56.6,47.3,29.84,WSW,237,3.0,7.0,71,0.00,,,0.00,0,Wunderground v.1.15,2013-07-13 14:24:00,
2013-07-13 08:30:00,56.8,47.5,29.84,WSW,239,3.0,7.0,71,0.00,,,0.00,0,Wunderground v.1.15,2013-07-13 14:30:00,
2013-07-13 08:36:00,57.3,48.0,29.84,WSW,239,3.0,7.0,71,0.00,,,0.00,0,Wunderground v.1.15,2013-07-13 14:36:00,
2013-07-13 08:42:00,57.6,47.1,29.84,WSW,239,3.0,7.0,68,0.00,,,0.00,0,Wunderground v.1.15,2013-07-13 14:42:00,
2013-07-13 08:52:00,58.5,48.0,29.84,WSW,239,2.0,7.0,68,0.00,,,0.00,0,Wunderground v.1.15,2013-07-13 14:52:00,
2013-07-13 09:00:00,58.8,47.9,29.84,WSW,239,3.0,7.0,67,0.00,,,0.00,0,Wunderground v.1.15,2013-07-13 15:00:00,
2013-07-13 09:06:00,58.9,46.7,29.84,WSW,239,3.0,7.0,64,0.00,,,0.00,0,Wunderground v.1.15,2013-07-13 15:06:00,
2013-07-13 09:14:00,59.2,45.3,29.84,WSW,243,4.0,7.0,60,0.00,,,0.00,0,Wunderground v.1.15,2013-07-13 15:14:00,
2013-07-13 09:20:00,59.5,45.6,29.84,SW,236,4.0,7.0,60,0.00,,,0.00,0,Wunderground v.1.15,2013-07-13 15:20:00,
2013-07-13 09:26:00,60.0,43.3,29.84,WNW,289,5.0,7.0,54,0.00,,,0.00,0,Wunderground v.1.15,2013-07-13 15:26:00,
2013-07-13 09:32:00,60.5,42.3,29.84,WSW,251,7.0,10.0,51,0.00,,,0.00,0,Wunderground v.1.15,2013-07-13 15:32:00,
2013-07-13 09:40:00,60.9,42.1,29.85,WSW,256,10.0,11.0,50,0.00,,,0.00,0,Wunderground v.1.15,2013-07-13 15:40:00,
2013-07-13 09:46:00,61.0,42.7,29.85,WSW,243,10.0,11.0,51,0.00,,,0.00,0,Wunderground v.1.15,2013-07-13 15:46:00,
2013-07-13 09:52:00,61.1,41.8,29.85,West,264,10.0,13.0,49,0.00,,,0.00,0,Wunderground v.1.15,2013-07-13 15:52:00,
2013-07-13 09:58:00,61.4,41.5,29.85,WSW,244,11.0,14.0,48,0.00,,,0.00,0,Wunderground v.1.15,2013-07-13 15:58:00,
2013-07-13 10:04:00,61.6,40.0,29.85,WSW,253,12.0,13.0,45,0.00,,,0.00,0,Wunderground v.1.15,2013-07-13 16:04:00,
2013-07-13 10:10:00,62.0,42.1,29.85,West,269,11.0,11.0,48,0.00,,,0.00,0,Wunderground v.1.15,2013-07-13 16:10:00,
2013-07-13 10:16:00,62.2,40.0,29.85,West,267,12.0,13.0,44,0.00,,,0.00,0,Wunderground v.1.15,2013-07-13 16:16:00,
2013-07-13 10:22:00,62.4,40.8,29.86,WSW,244,13.0,16.0,45,0.00,,,0.00,0,Wunderground v.1.15,2013-07-13 16:22:00,
2013-07-13 10:28:00,62.7,40.5,29.86,WSW,257,13.0,16.0,44,0.00,,,0.00,0,Wunderground v.1.15,2013-07-13 16:28:00,
2013-07-13 10:38:00,62.9,40.0,29.86,West,262,13.0,16.0,43,0.00,,,0.00,0,Wunderground v.1.15,2013-07-13 16:38:00,
2013-07-13 10:44:00,63.0,39.5,29.86,West,261,12.0,14.0,42,0.00,,,0.00,0,Wunderground v.1.15,2013-07-13 16:44:00,
2013-07-13 10:50:00,63.1,39.0,29.85,West,268,13.0,13.0,41,0.00,,,0.00,0,Wunderground v.1.15,2013-07-13 16:50:00,
2013-07-13 10:58:00,63.6,40.1,29.86,WSW,256,12.0,13.0,42,0.00,,,0.00,0,Wunderground v.1.15,2013-07-13 16:58:00,
2013-07-13 11:04:00,63.7,41.4,29.85,West,263,12.0,18.0,44,0.00,,,0.00,0,Wunderground v.1.15,2013-07-13 17:04:00,
2013-07-13 11:10:00,63.9,40.3,29.86,WSW,250,11.0,11.0,42,0.00,,,0.00,0,Wunderground v.1.15,2013-07-13 17:10:00,
2013-07-13 11:22:00,64.4,40.2,29.86,West,260,11.0,18.0,41,0.00,,,0.00,0,Wunderground v.1.15,2013-07-13 17:22:00,
2013-07-13 11:28:00,64.5,40.3,29.86,WSW,254,11.0,18.0,41,0.00,,,0.00,0,Wunderground v.1.15,2013-07-13 17:28:00,
2013-07-13 11:34:00,64.8,39.9,29.86,WSW,258,10.0,18.0,40,0.00,,,0.00,0,Wunderground v.1.15,2013-07-13 17:34:00,
2013-07-13 11:44:00,65.0,40.1,29.86,WSW,256,11.0,18.0,40,0.00,,,0.00,0,Wunderground v.1.15,2013-07-13 17:44:00,
2013-07-13 11:52:00,65.3,40.3,29.86,WSW,245,11.0,18.0,40,0.00,,,0.00,0,Wunderground v.1.15,2013-07-13 17:52:00,
2013-07-13 11:58:00,65.4,40.4,29.86,WSW,250,13.0,18.0,40,0.00,,,0.00,0,Wunderground v.1.15,2013-07-13 17:58:00,
2013-07-13 12:06:00,65.6,40.6,29.86,WSW,256,13.0,18.0,40,0.00,,,0.00,0,Wunderground v.1.15,2013-07-13 18:06:00,
2013-07-13 12:12:00,65.7,41.3,29.86,West,263,13.0,18.0,41,0.00,,,0.00,0,Wunderground v.1.15,2013-07-13 18:12:00,
2013-07-13 12:18:00,66.0,39.7,29.86,West,260,13.0,18.0,38,0.00,,,0.00,0,Wunderground v.1.15,2013-07-13 18:18:00,
2013-07-13 12:28:00,66.6,42.8,29.86,WSW,253,12.0,18.0,42,0.00,,,0.00,0,Wunderground v.1.15,2013-07-13 18:28:00,
2013-07-13 12:34:00,66.9,42.4,29.86,WSW,255,12.0,18.0,41,0.00,,,0.00,0,Wunderground v.1.15,2013-07-13 18:34:00,
2013-07-13 12:44:00,67.0,39.9,29.86,West,264,16.0,18.0,37,0.00,,,0.00,0,Wunderground v.1.15,2013-07-13 18:44:00,
2013-07-13 12:50:00,67.2,42.7,29.86,West,264,16.0,18.0,41,0.00,,,0.00,0,Wunderground v.1.15,2013-07-13 18:50:00,
2013-07-13 12:56:00,67.3,40.1,29.86,WSW,252,17.0,18.0,37,0.00,,,0.00,0,Wunderground v.1.15,2013-07-13 18:56:00,
2013-07-13 13:02:00,67.4,41.6,29.86,WSW,250,16.0,18.0,39,0.00,,,0.00,0,Wunderground v.1.15,2013-07-13 19:02:00,
2013-07-13 13:08:00,67.5,38.9,29.86,WSW,258,16.0,18.0,35,0.00,,,0.00,0,Wunderground v.1.15,2013-07-13 19:08:00,
2013-07-13 13:14:00,67.5,42.3,29.86,West,260,15.0,18.0,40,0.00,,,0.00,0,Wunderground v.1.15,2013-07-13 19:14:00,
2013-07-13 13:22:00,67.7,41.8,29.86,WSW,257,14.0,18.0,39,0.00,,,0.00,0,Wunderground v.1.15,2013-07-13 19:22:00,
2013-07-13 13:28:00,68.0,42.8,29.86,WSW,258,14.0,18.0,40,0.00,,,0.00,0,Wunderground v.1.15,2013-07-13 19:28:00,
2013-07-13 13:34:00,68.2,40.9,29.86,WSW,253,15.0,18.0,37,0.00,,,0.00,0,Wunderground v.1.15,2013-07-13 19:34:00,
2013-07-13 13:40:00,68.6,40.6,29.86,West,262,14.0,18.0,36,0.00,,,0.00,0,Wunderground v.1.15,2013-07-13 19:40:00,
2013-07-13 13:46:00,68.8,42.1,29.86,WSW,256,14.0,18.0,38,0.00,,,0.00,0,Wunderground v.1.15,2013-07-13 19:46:00,
2013-07-13 13:52:00,69.1,40.3,29.86,West,275,13.0,18.0,35,0.00,,,0.00,0,Wunderground v.1.15,2013-07-13 19:52:00,
2013-07-13 14:00:00,69.2,40.4,29.86,West,275,14.0,18.0,35,0.00,,,0.00,0,Wunderground v.1.15,2013-07-13 20:00:00,
2013-07-13 14:06:00,69.4,40.5,29.86,West,262,15.0,18.0,35,0.00,,,0.00,0,Wunderground v.1.15,2013-07-13 20:06:00,
2013-07-13 14:12:00,69.6,40.7,29.86,WSW,253,15.0,18.0,35,0.00,,,0.00,0,Wunderground v.1.15,2013-07-13 20:12:00,
2013-07-13 14:20:00,69.9,43.8,29.86,West,275,13.0,13.0,39,0.00,,,0.00,0,Wunderground v.1.15,2013-07-13 20:20:00,
2013-07-13 14:26:00,70.1,42.6,29.86,West,271,14.0,18.0,37,0.00,,,0.00,0,Wunderground v.1.15,2013-07-13 20:26:00,
2013-07-13 14:32:00,70.2,43.4,29.85,WSW,254,13.0,18.0,38,0.00,,,0.00,0,Wunderground v.1.15,2013-07-13 20:32:00,
2013-07-13 14:38:00,70.3,41.3,29.86,WSW,251,13.0,18.0,35,0.00,,,0.00,0,Wunderground v.1.15,2013-07-13 20:38:00,
2013-07-13 14:44:00,70.8,43.2,29.86,WSW,256,12.0,18.0,37,0.00,,,0.00,0,Wunderground v.1.15,2013-07-13 20:44:00,
2013-07-13 14:50:00,71.2,42.1,29.86,WSW,258,11.0,18.0,35,0.00,,,0.00,0,Wunderground v.1.15,2013-07-13 20:50:00,
2013-07-13 14:56:00,71.2,39.8,29.86,West,263,13.0,18.0,32,0.00,,,0.00,0,Wunderground v.1.15,2013-07-13 20:56:00,
2013-07-13 15:02:00,71.3,41.5,29.86,WSW,258,13.0,20.0,34,0.00,,,0.00,0,Wunderground v.1.15,2013-07-13 21:02:00,
2013-07-13 15:08:00,71.7,41.0,29.85,West,275,13.0,20.0,33,0.00,,,0.00,0,Wunderground v.1.15,2013-07-13 21:08:00,
2013-07-13 15:16:00,71.8,40.3,29.85,West,262,15.0,20.0,32,0.00,,,0.00,0,Wunderground v.1.15,2013-07-13 21:16:00,
2013-07-13 15:22:00,71.8,41.1,29.85,WSW,253,15.0,21.0,33,0.00,,,0.00,0,Wunderground v.1.15,2013-07-13 21:22:00,
2013-07-13 15:30:00,71.9,42.8,29.85,West,275,15.0,20.0,35,0.00,,,0.00,0,Wunderground v.1.15,2013-07-13 21:30:00,
2013-07-13 15:36:00,72.3,44.6,29.85,WSW,250,14.0,20.0,37,0.00,,,0.00,0,Wunderground v.1.15,2013-07-13 21:36:00,
2013-07-13 15:42:00,72.5,44.0,29.85,WSW,251,14.0,20.0,36,0.00,,,0.00,0,Wunderground v.1.15,2013-07-13 21:42:00,
2013-07-13 15:48:00,72.6,41.8,29.85,West,269,15.0,20.0,33,0.00,,,0.00,0,Wunderground v.1.15,2013-07-13 21:48:00,
2013-07-13 15:54:00,72.7,41.1,29.85,WSW,256,14.0,20.0,32,0.00,,,0.00,0,Wunderground v.1.15,2013-07-13 21:54:00,
2013-07-13 16:00:00,72.6,41.8,29.84,WSW,258,16.0,20.0,33,0.00,,,0.00,0,Wunderground v.1.15,2013-07-13 22:00:00,
2013-07-13 16:08:00,72.8,45.7,29.85,WSW,247,18.0,20.0,38,0.00,,,0.00,0,Wunderground v.1.15,2013-07-13 22:08:00,
2013-07-13 16:14:00,73.0,40.6,29.84,WSW,249,15.0,20.0,31,0.00,,,0.00,0,Wunderground v.1.15,2013-07-13 22:14:00,
2013-07-13 16:20:00,73.1,43.8,29.84,West,275,16.0,20.0,35,0.00,,,0.00,0,Wunderground v.1.15,2013-07-13 22:20:00,
2013-07-13 16:26:00,73.0,43.7,29.84,West,266,18.0,21.0,35,0.00,,,0.00,0,Wunderground v.1.15,2013-07-13 22:26:00,
2013-07-13 16:32:00,72.9,41.3,29.84,WSW,252,19.0,21.0,32,0.00,,,0.00,0,Wunderground v.1.15,2013-07-13 22:32:00,
2013-07-13 16:38:00,73.0,42.2,29.84,West,260,19.0,21.0,33,0.00,,,0.00,0,Wunderground v.1.15,2013-07-13 22:38:00,
2013-07-13 16:44:00,73.0,38.9,29.84,West,260,18.0,21.0,29,0.00,,,0.00,0,Wunderground v.1.15,2013-07-13 22:44:00,
2013-07-13 16:50:00,73.0,40.6,29.84,West,262,18.0,21.0,31,0.00,,,0.00,0,Wunderground v.1.15,2013-07-13 22:50:00,
2013-07-13 16:56:00,73.0,42.2,29.83,West,268,20.0,21.0,33,0.00,,,0.00,0,Wunderground v.1.15,2013-07-13 22:56:00,
2013-07-13 17:02:00,73.2,43.9,29.84,WSW,258,19.0,20.0,35,0.00,,,0.00,0,Wunderground v.1.15,2013-07-13 23:02:00,
2013-07-13 17:08:00,73.3,41.6,29.83,WNW,285,19.0,21.0,32,0.00,,,0.00,0,Wunderground v.1.15,2013-07-13 23:08:00,
2013-07-13 17:14:00,73.5,41.8,29.83,West,266,19.0,21.0,32,0.00,,,0.00,0,Wunderground v.1.15,2013-07-13 23:14:00,
2013-07-13 17:20:00,73.5,41.0,29.83,West,265,20.0,21.0,31,0.00,,,0.00,0,Wunderground v.1.15,2013-07-13 23:20:00,
2013-07-13 17:26:00,73.5,43.4,29.83,West,268,21.0,22.0,34,0.00,,,0.00,0,Wunderground v.1.15,2013-07-13 23:26:00,
2013-07-13 17:32:00,73.6,41.1,29.83,West,267,20.0,20.0,31,0.00,,,0.00,0,Wunderground v.1.15,2013-07-13 23:32:00,
2013-07-13 17:38:00,73.7,42.8,29.83,West,268,20.0,21.0,33,0.00,,,0.00,0,Wunderground v.1.15,2013-07-13 23:38:00,
2013-07-13 17:44:00,73.6,39.4,29.83,West,275,21.0,22.0,29,0.00,,,0.00,0,Wunderground v.1.15,2013-07-13 23:44:00,
2013-07-13 17:50:00,73.9,40.5,29.83,WSW,251,20.0,20.0,30,0.00,,,0.00,0,Wunderground v.1.15,2013-07-13 23:50:00,
2013-07-13 17:56:00,73.9,40.5,29.83,West,263,20.0,22.0,30,0.00,,,0.00,0,Wunderground v.1.15,2013-07-13 23:56:00,
2013-07-13 18:04:00,73.9,43.0,29.83,West,262,20.0,24.0,33,0.00,,,0.00,0,Wunderground v.1.15,2013-07-14 00:04:00,
2013-07-13 18:10:00,73.8,41.3,29.83,West,259,21.0,21.0,31,0.00,,,0.00,0,Wunderground v.1.15,2013-07-14 00:10:00,
2013-07-13 18:16:00,73.9,42.2,29.83,WSW,253,21.0,22.0,32,0.00,,,0.00,0,Wunderground v.1.15,2013-07-14 00:16:00,
2013-07-13 18:22:00,73.8,40.4,29.83,West,268,22.0,22.0,30,0.00,,,0.00,0,Wunderground v.1.15,2013-07-14 00:22:00,
2013-07-13 18:28:00,73.7,42.8,29.83,West,268,22.0,25.0,33,0.00,,,0.00,0,Wunderground v.1.15,2013-07-14 00:28:00,
2013-07-13 18:34:00,73.8,40.4,29.83,West,275,22.0,24.0,30,0.00,,,0.00,0,Wunderground v.1.15,2013-07-14 00:34:00,
2013-07-13 18:40:00,73.8,39.5,29.83,West,264,22.0,22.0,29,0.00,,,0.00,0,Wunderground v.1.15,2013-07-14 00:40:00,
2013-07-13 18:46:00,73.8,42.1,29.83,WSW,253,21.0,24.0,32,0.00,,,0.00,0,Wunderground v.1.15,2013-07-14 00:46:00,
2013-07-13 18:52:00,73.8,41.3,29.83,West,275,22.0,24.0,31,0.00,,,0.00,0,Wunderground v.1.15,2013-07-14 00:52:00,
2013-07-13 18:58:00,73.8,41.3,29.83,West,262,21.0,24.0,31,0.00,,,0.00,0,Wunderground v.1.15,2013-07-14 00:58:00,
2013-07-13 19:04:00,73.9,39.6,29.84,West,268,23.0,26.0,29,0.00,,,0.00,0,Wunderground v.1.15,2013-07-14 01:04:00,
2013-07-13 19:10:00,73.7,39.5,29.84,West,265,25.0,26.0,29,0.00,,,0.00,0,Wunderground v.1.15,2013-07-14 01:10:00,
2013-07-13 19:16:00,73.5,39.3,29.84,West,271,23.0,26.0,29,0.00,,,0.00,0,Wunderground v.1.15,2013-07-14 01:16:00,
2013-07-13 19:22:00,73.7,39.5,29.84,West,275,21.0,22.0,29,0.00,,,0.00,0,Wunderground v.1.15,2013-07-14 01:22:00,
2013-07-13 19:28:00,73.9,43.8,29.84,WNW,290,21.0,22.0,34,0.00,,,0.00,0,Wunderground v.1.15,2013-07-14 01:28:00,
2013-07-13 19:34:00,73.8,41.3,29.84,West,261,22.0,24.0,31,0.00,,,0.00,0,Wunderground v.1.15,2013-07-14 01:34:00,
2013-07-13 19:40:00,73.6,39.4,29.85,West,266,23.0,23.0,29,0.00,,,0.00,0,Wunderground v.1.15,2013-07-14 01:40:00,
2013-07-13 19:46:00,73.3,37.3,29.85,West,261,21.0,23.0,27,0.00,,,0.00,0,Wunderground v.1.15,2013-07-14 01:46:00,
2013-07-13 19:52:00,73.4,37.4,29.86,West,275,21.0,21.0,27,0.00,,,0.00,0,Wunderground v.1.15,2013-07-14 01:52:00,
2013-07-13 19:58:00,73.4,40.9,29.86,West,275,21.0,24.0,31,0.00,,,0.00,0,Wunderground v.1.15,2013-07-14 01:58:00,
2013-07-13 20:06:00,73.0,38.0,29.86,West,262,21.0,28.0,28,0.00,,,0.00,0,Wunderground v.1.15,2013-07-14 02:06:00,
2013-07-13 20:16:00,72.6,39.4,29.86,West,268,19.0,28.0,30,0.00,,,0.00,0,Wunderground v.1.15,2013-07-14 02:16:00,
2013-07-13 21:06:00,69.4,39.8,29.88,West,268,16.0,28.0,34,0.00,,,0.00,58,Wunderground v.1.15,2013-07-14 03:06:00,
2013-07-13 21:12:00,68.8,41.5,29.89,West,270,15.0,28.0,37,0.00,,,0.00,69,Wunderground v.1.15,2013-07-14 03:12:00,
2013-07-13 21:18:00,68.1,40.8,29.89,WSW,258,14.0,28.0,37,0.00,,,0.00,91,Wunderground v.1.15,2013-07-14 03:18:00,
2013-07-13 21:26:00,67.4,40.9,29.89,WSW,256,14.0,28.0,38,0.00,,,0.00,105,Wunderground v.1.15,2013-07-14 03:26:00,
2013-07-13 21:34:00,66.9,40.5,29.89,West,265,13.0,28.0,38,0.00,,,0.00,113,Wunderground v.1.15,2013-07-14 03:34:00,
2013-07-13 21:40:00,66.7,40.3,29.90,West,267,12.0,28.0,38,0.00,,,0.00,114,Wunderground v.1.15,2013-07-14 03:40:00,
2013-07-13 21:46:00,66.6,42.2,29.90,WSW,250,11.0,28.0,41,0.00,,,0.00,116,Wunderground v.1.15,2013-07-14 03:46:00,
2013-07-13 21:54:00,65.7,42.0,29.90,West,261,10.0,28.0,42,0.00,,,0.00,113,Wunderground v.1.15,2013-07-14 03:54:00,
2013-07-13 22:02:00,64.9,39.3,29.90,WSW,249,11.0,28.0,39,0.00,,,0.00,109,Wunderground v.1.15,2013-07-14 04:02:00,
2013-07-13 22:04:00,64.3,40.1,29.90,WSW,243,11.0,28.0,41,0.00,,,0.00,105,Wunderground v.1.15,2013-07-14 04:04:00,
2013-07-13 22:06:00,64.0,41.0,29.90,SW,229,10.0,28.0,43,0.00,,,0.00,105,Wunderground v.1.15,2013-07-14 04:06:00,
2013-07-13 22:12:00,63.4,42.2,29.91,WSW,250,10.0,28.0,46,0.00,,,0.00,102,Wunderground v.1.15,2013-07-14 04:12:00,
2013-07-13 22:14:00,63.3,42.7,29.91,West,264,9.0,28.0,47,0.00,,,0.00,102,Wunderground v.1.15,2013-07-14 04:14:00,
2013-07-13 22:20:00,63.1,42.5,29.91,West,270,9.0,28.0,47,0.00,,,0.00,100,Wunderground v.1.15,2013-07-14 04:20:00,
2013-07-13 22:26:00,63.1,42.0,29.92,West,263,9.0,28.0,46,0.00,,,0.00,98,Wunderground v.1.15,2013-07-14 04:26:00,
2013-07-13 22:40:00,63.3,41.6,29.92,WSW,258,6.0,28.0,45,0.00,,,0.00,97,Wunderground v.1.15,2013-07-14 04:40:00,
2013-07-13 22:46:00,63.7,40.2,29.92,West,270,7.0,28.0,42,0.00,,,0.00,97,Wunderground v.1.15,2013-07-14 04:46:00,
2013-07-13 22:52:00,63.4,37.3,29.93,NNW,336,6.0,28.0,38,0.00,,,0.00,97,Wunderground v.1.15,2013-07-14 04:52:00,
2013-07-13 22:58:00,62.9,35.5,29.93,NNW,331,4.0,28.0,36,0.00,,,0.00,95,Wunderground v.1.15,2013-07-14 04:58:00,
2013-07-13 23:04:00,63.0,37.6,29.93,NW,324,4.0,28.0,39,0.00,,,0.00,95,Wunderground v.1.15,2013-07-14 05:04:00,
2013-07-13 23:10:00,63.1,42.0,29.93,WNW,299,4.0,28.0,46,0.00,,,0.00,95,Wunderground v.1.15,2013-07-14 05:10:00,
2013-07-13 23:16:00,63.4,39.3,29.93,WSW,248,5.0,28.0,41,0.00,,,0.00,95,Wunderground v.1.15,2013-07-14 05:16:00,
2013-07-13 23:22:00,63.4,41.7,29.94,SW,231,8.0,28.0,45,0.00,,,0.00,95,Wunderground v.1.15,2013-07-14 05:22:00,
2013-07-13 23:28:00,62.6,40.4,29.94,SW,233,6.0,28.0,44,0.00,,,0.00,95,Wunderground v.1.15,2013-07-14 05:28:00,
2013-07-13 23:34:00,62.1,41.6,29.94,West,261,6.0,28.0,47,0.00,,,0.00,93,Wunderground v.1.15,2013-07-14 05:34:00,
2013-07-13 23:40:00,62.0,43.1,29.94,West,264,8.0,8.0,50,0.00,,,0.00,91,Wunderground v.1.15,2013-07-14 05:40:00,
2013-07-13 23:46:00,62.0,42.6,29.94,West,275,7.0,28.0,49,0.00,,,0.00,91,Wunderground v.1.15,2013-07-14 05:46:00,
2013-07-13 23:52:00,61.7,42.3,29.95,West,275,4.0,28.0,49,0.00,,,0.00,90,Wunderground v.1.15,2013-07-14 05:52:00,
2013-07-13 23:58:00,61.4,41.5,29.95,West,275,2.0,28.0,48,0.00,,,0.00,88,Wunderground v.1.15,2013-07-14 05:58:00,